星链-30041 (STARLINK-30041 )

导读

STARLINK-30041是美国SpaceX公司星链互联网卫星星座的成员,2023年8月11日发射升空,归属星链分组部署计划。星链项目旨在搭建全球覆盖的低轨卫星互联网,该卫星入轨后,承担为偏远地区、海洋空域等场景提供高速低延迟宽带服务,持续扩充星链系统的全球覆盖容量与服务能力。

基本信息
目录编号:
57613
目录名称:
STARLINK-30041
国际标识:
2023-119M
轨道中心:
EARTH
卫星名称:
星链-30041
卫星全名:
星链-30041 (STARLINK-30041 )
卫星状态:
在轨 (已飞行1042 天)
发射日期:
2023-08-11 UTC
国别 :
美国 (US)
星等 :
--
轨道信息
数据来源 国际轨道数据 AOE轨道数据
星历时间 2026-06-18T13:15:06+0800
9小时前
查看轨道信息
2026-06-16T07:00:00+0800
2天前
查看轨道信息
半长轴 6861.093km 6861.198km
偏心率 0.0002127 0.0000908
轨道倾角 43.002° 43.001°
近地点辐角 284.476° 295.440°
升交点赤经 233.615° 246.384°
平近点角 75.585° 218.856°
近地点 481.496km 482.438km
远地点 484.416km 483.684km
周期 94.265分钟 94.267分钟
每日圈数 15.276113 15.275762
详细信息
固有亮度:
5
最大亮度:
0.3
卫星平台:
Starlink v2.0 mini
覆盖范围:
全球
运营商:
太空探索技术公司
运营商所在国:
美国
制造商(研发单位):
太空探索技术公司
制造商所在国:
美国
使用方式:
暂无
卫星简介
星链(Starlink)计划是由太空探索技术公司(SpaceX)提出的一个巨型低轨卫星互联网星座项目,计划在2019年至2024年间在太空搭建由约1.2万颗卫星组成的“星链”网络,其中1584颗将部署在地球上空550千米处的近地轨道,并从2020年开始工作。该卫星仍在工作。
2D轨道图
3D轨道图
轨道高度分析图
轨道倾角分析图
轨道综合分析图
查看轨道综合分析图